| time (UTC) | temp F | wind direction | speed knots | gust knots | rain 1hr in | rain 24hr in | rain mn in | humidity % | barometer mb |
| 20260903033110 | 75 | 0.0 | 0.0 | 0.00 | 0.00 | 0.00 | 99 | 1014.8 | |
| 20260903030109 | 76 | 0.0 | 0.0 | 0.00 | 0.00 | 0.00 | 99 | 1014.9 | |
| 20260902221705 | 89 | 270 | 3.5 | 4.3 | 0.00 | 0.00 | 0.00 | 81 | 1014.0 |
| 20260902191721 | 0 | 203 | 6.1 | 6.1 | 0.00 | 0.00 | 0.00 | ||
| 20260902175123 | 88 | 226 | 8.7 | 10.4 | 0.00 | 0.00 | 0.00 | 83 | 1015.2 |
| 20260902174545 | 89 | 7.0 | 7.0 | 0.00 | 0.00 | 0.00 | 80 | 1015.4 | |
| 20260902162718 | 86 | 3.5 | 3.5 | 0.00 | 0.00 | 0.00 | 87 | 1015.3 | |
| 20260902161604 | 0 | 180 | 3.5 | 4.3 | 0.00 | 0.00 | 0.00 | ||
| 20260902160545 | 87 | 2.6 | 2.6 | 0.00 | 0.00 | 0.00 | 83 | 1015.5 | |
| 20260902160141 | 86 | 5.2 | 5.2 | 0.00 | 0.00 | 0.00 | 87 | 1015.6 | |
| 20260902155256 | 86 | 3.5 | 3.5 | 0.00 | 0.00 | 0.00 | 87 | 1015.7 | |
| 20260902150755 | 83 | 180 | 2.6 | 3.5 | 0.00 | 0.00 | 0.00 | 91 | 1015.8 |
| 20260902145736 | 83 | 180 | 2.6 | 2.6 | 0.00 | 0.00 | 0.00 | 91 | 1015.9 |
| 20260902125814 | 76 | 0.0 | 0.0 | 0.00 | 0.00 | 0.00 | 99 | 1016.8 | |
| 20260902115428 | 0 | 225 | 3.5 | 3.5 | 0.00 | 0.00 | 0.00 | ||
| 20260902073102 | 73 | 203 | 1.7 | 1.7 | 0.00 | 0.00 | 0.00 | 99 | 1015.6 |
| 20260902072104 | 73 | 0.0 | 0.0 | 0.00 | 0.00 | 0.00 | 99 | 1015.6 | |
| 20260902071313 | 73 | 0.0 | 0.0 | 0.00 | 0.00 | 0.00 | 99 | 1015.7 | |
| 20260902064639 | 74 | 0.0 | 0.0 | 0.00 | 0.00 | 0.00 | 99 | 1015.7 | |
| 20260902063524 | 74 | 203 | 0.9 | 1.7 | 0.00 | 0.00 | 0.00 | 99 | 1015.9 |